DAL88 MUHA-KFLL

Flight info

Callsign DAL88
Flight time 0h 44m
Altitude 29000
Route MUHA/24 WOLSE1.EMOVI/24 BHHIA3
Aircraft B739/M-SDE2E3FGHIRWXY/LB1

Departure

Time 2026-05-03 20:58
Airport José Martí International Airport (MUHA)

Arrival

Time 2026-05-03 21:43
Airport Fort Lauderdale Hollywood International Airport (KFLL)
Time Latitude Longitude Altitude Speed Heading
2026-05-03 20:15 22.99692 -82.40649 246 ft 0 kts 235°
2026-05-03 20:43 22.99698 -82.40639 220 ft 4 kts 233°
2026-05-03 20:43 22.99713 -82.40620 218 ft 3 kts 224°
2026-05-03 20:44 22.99731 -82.40605 219 ft 3 kts 198°
2026-05-03 20:44 22.99745 -82.40602 218 ft 3 kts 130°
2026-05-03 20:44 22.99747 -82.40605 219 ft 0 kts 98°
2026-05-03 20:48 22.99732 -82.40572 222 ft 10 kts 130°
2026-05-03 20:48 22.99677 -82.40527 219 ft 10 kts 149°
2026-05-03 20:48 22.99617 -82.40498 224 ft 9 kts 174°
2026-05-03 20:49 22.99572 -82.40539 218 ft 9 kts 239°
2026-05-03 20:49 22.99539 -82.40594 223 ft 9 kts 236°
2026-05-03 20:49 22.99501 -82.40656 224 ft 12 kts 236°
2026-05-03 20:49 22.99448 -82.40734 222 ft 13 kts 232°
2026-05-03 20:50 22.99395 -82.40811 224 ft 12 kts 235°
2026-05-03 20:50 22.99334 -82.40838 225 ft 10 kts 162°
2026-05-03 20:50 22.99275 -82.40797 219 ft 10 kts 142°
2026-05-03 20:50 22.99213 -82.40788 222 ft 10 kts 210°
2026-05-03 20:51 22.99171 -82.40843 224 ft 9 kts 233°
2026-05-03 20:51 22.99134 -82.40900 219 ft 9 kts 234°
2026-05-03 20:51 22.99097 -82.40957 226 ft 9 kts 235°
2026-05-03 20:51 22.99057 -82.41019 219 ft 11 kts 233°
2026-05-03 20:52 22.98999 -82.41104 223 ft 15 kts 233°
2026-05-03 20:52 22.98939 -82.41192 218 ft 14 kts 233°
2026-05-03 20:52 22.98882 -82.41280 219 ft 14 kts 236°
2026-05-03 20:52 22.98828 -82.41363 219 ft 13 kts 233°
2026-05-03 20:53 22.98774 -82.41442 221 ft 13 kts 234°
2026-05-03 20:53 22.98723 -82.41519 223 ft 12 kts 234°
2026-05-03 20:53 22.98673 -82.41595 222 ft 12 kts 234°
2026-05-03 20:53 22.98624 -82.41669 218 ft 12 kts 234°
2026-05-03 20:54 22.98577 -82.41740 218 ft 12 kts 234°
2026-05-03 20:54 22.98485 -82.41878 220 ft 11 kts 234°
2026-05-03 20:54 22.98441 -82.41944 219 ft 11 kts 234°
2026-05-03 20:55 22.98399 -82.42008 224 ft 10 kts 234°
2026-05-03 20:55 22.98358 -82.42070 223 ft 10 kts 234°
2026-05-03 20:55 22.98318 -82.42130 221 ft 10 kts 234°
2026-05-03 20:55 22.98275 -82.42194 218 ft 11 kts 234°
2026-05-03 20:56 22.98227 -82.42266 220 ft 12 kts 234°
2026-05-03 20:56 22.98180 -82.42337 222 ft 11 kts 234°
2026-05-03 20:56 22.98134 -82.42406 219 ft 11 kts 234°
2026-05-03 20:56 22.98089 -82.42474 219 ft 11 kts 234°
2026-05-03 20:57 22.98046 -82.42540 222 ft 11 kts 234°
2026-05-03 20:57 22.97981 -82.42561 221 ft 10 kts 164°
2026-05-03 20:57 22.97923 -82.42520 218 ft 10 kts 136°
2026-05-03 20:57 22.97895 -82.42456 220 ft 10 kts 82°
2026-05-03 20:58 22.98042 -82.42225 220 ft 80 kts 54°
2026-05-03 20:58 22.98522 -82.41505 218 ft 154 kts 54°
2026-05-03 20:58 22.99285 -82.40365 325 ft 206 kts 55°
2026-05-03 20:58 23.00120 -82.39144 1433 ft 200 kts 48°
2026-05-03 20:59 23.01307 -82.38399 2292 ft 203 kts
2026-05-03 20:59 23.02777 -82.38566 2558 ft 228 kts 342°
2026-05-03 20:59 23.04397 -82.39018 2869 ft 246 kts 343°
2026-05-03 20:59 23.06107 -82.39105 3330 ft 256 kts 11°
2026-05-03 21:00 23.07715 -82.38248 3864 ft 260 kts 42°
2026-05-03 21:00 23.08481 -82.37226 4354 ft 261 kts 61°
2026-05-03 21:00 23.09387 -82.34676 4788 ft 285 kts 73°
2026-05-03 21:00 23.09974 -82.32601 5521 ft 288 kts 74°
2026-05-03 21:01 23.10557 -82.30505 6365 ft 291 kts 74°
2026-05-03 21:01 23.11144 -82.28393 7140 ft 293 kts 74°
2026-05-03 21:01 23.11734 -82.26253 7870 ft 298 kts 74°
2026-05-03 21:01 23.12325 -82.24089 8597 ft 301 kts 74°
2026-05-03 21:02 23.13045 -82.21946 9299 ft 305 kts 57°
2026-05-03 21:02 23.14556 -82.20362 10000 ft 305 kts 25°
2026-05-03 21:02 23.16605 -82.19781 10429 ft 314 kts 357°
2026-05-03 21:02 23.18792 -82.20249 10611 ft 330 kts 339°
2026-05-03 21:03 23.21007 -82.21091 10960 ft 343 kts 338°
2026-05-03 21:03 23.23264 -82.22003 11539 ft 347 kts 337°
2026-05-03 21:03 23.25534 -82.22925 12185 ft 350 kts 337°
2026-05-03 21:03 23.27763 -82.23820 12822 ft 352 kts 337°
2026-05-03 21:04 23.30076 -82.24738 13548 ft 355 kts 338°
2026-05-03 21:04 23.32382 -82.25644 14093 ft 359 kts 338°
2026-05-03 21:04 23.34744 -82.26565 14610 ft 363 kts 338°
2026-05-03 21:04 23.37144 -82.27496 15167 ft 365 kts 338°
2026-05-03 21:05 23.39539 -82.28423 15694 ft 368 kts 337°
2026-05-03 21:05 23.41960 -82.29360 16221 ft 370 kts 337°
2026-05-03 21:05 23.44397 -82.30302 16745 ft 373 kts 337°
2026-05-03 21:05 23.46853 -82.31252 17273 ft 376 kts 337°
2026-05-03 21:06 23.49331 -82.32211 17778 ft 379 kts 337°
2026-05-03 21:06 23.51828 -82.33177 18281 ft 382 kts 337°
2026-05-03 21:06 23.54346 -82.34153 18699 ft 385 kts 336°
2026-05-03 21:06 23.56885 -82.35136 19124 ft 388 kts 336°
2026-05-03 21:07 23.59433 -82.36123 19551 ft 390 kts 336°
2026-05-03 21:07 23.62004 -82.37120 19976 ft 392 kts 336°
2026-05-03 21:07 23.64587 -82.38122 20397 ft 395 kts 336°
2026-05-03 21:07 23.67182 -82.39129 20817 ft 397 kts 336°
2026-05-03 21:08 23.69794 -82.40143 21220 ft 400 kts 335°
2026-05-03 21:08 23.72427 -82.41165 21621 ft 402 kts 335°
2026-05-03 21:08 23.75071 -82.42193 22020 ft 405 kts 335°
2026-05-03 21:08 23.77697 -82.43214 22402 ft 407 kts 335°
2026-05-03 21:09 23.80369 -82.44253 22800 ft 409 kts 335°
2026-05-03 21:09 23.83055 -82.45298 23172 ft 411 kts 335°
2026-05-03 21:09 23.85760 -82.46351 23522 ft 414 kts 335°
2026-05-03 21:09 23.88477 -82.47408 23839 ft 416 kts 334°
2026-05-03 21:10 23.91209 -82.48472 24151 ft 417 kts 334°
2026-05-03 21:10 23.93952 -82.49541 24464 ft 419 kts 334°
2026-05-03 21:10 23.96815 -82.50285 24718 ft 434 kts 351°
2026-05-03 21:10 23.99866 -82.49972 24981 ft 450 kts 10°
2026-05-03 21:11 24.02772 -82.48579 24988 ft 466 kts 31°
2026-05-03 21:11 24.05220 -82.46203 25026 ft 471 kts 43°
2026-05-03 21:11 24.07460 -82.43601 25006 ft 470 kts 44°
2026-05-03 21:11 24.09663 -82.40960 25005 ft 470 kts 45°
2026-05-03 21:12 24.11871 -82.38309 25003 ft 471 kts 45°
2026-05-03 21:12 24.14087 -82.35673 25003 ft 471 kts 44°
2026-05-03 21:12 24.16320 -82.33048 25007 ft 471 kts 44°
2026-05-03 21:12 24.18567 -82.30429 25008 ft 471 kts 44°
2026-05-03 21:13 24.20819 -82.27815 25005 ft 472 kts 44°
2026-05-03 21:13 24.23074 -82.25203 25006 ft 472 kts 44°
2026-05-03 21:13 24.25333 -82.22585 25008 ft 472 kts 44°
2026-05-03 21:13 24.27592 -82.19965 25007 ft 473 kts 44°
2026-05-03 21:14 24.29849 -82.17345 25006 ft 473 kts 44°
2026-05-03 21:14 24.32104 -82.14724 25004 ft 472 kts 44°
2026-05-03 21:14 24.34353 -82.12107 25006 ft 472 kts 44°
2026-05-03 21:14 24.36605 -82.09486 25003 ft 472 kts 44°
2026-05-03 21:15 24.38854 -82.06866 25010 ft 472 kts 44°
2026-05-03 21:15 24.41071 -82.04282 25007 ft 472 kts 44°
2026-05-03 21:15 24.43321 -82.01658 25008 ft 472 kts 44°
2026-05-03 21:15 24.45571 -81.99034 25004 ft 472 kts 44°
2026-05-03 21:16 24.47853 -81.96376 25017 ft 472 kts 43°
2026-05-03 21:16 24.50236 -81.93989 25021 ft 469 kts 35°
2026-05-03 21:16 24.52822 -81.91789 25012 ft 469 kts 33°
2026-05-03 21:16 24.55451 -81.89666 25005 ft 469 kts 32°
2026-05-03 21:17 24.58079 -81.87540 25005 ft 469 kts 33°
2026-05-03 21:17 24.59841 -81.86090 25014 ft 469 kts 33°
2026-05-03 21:17 24.63292 -81.83194 25009 ft 477 kts 34°
2026-05-03 21:17 24.65942 -81.80939 25015 ft 484 kts 34°
2026-05-03 21:18 24.68617 -81.78656 25028 ft 489 kts 34°
2026-05-03 21:18 24.71307 -81.76358 25013 ft 488 kts 34°
2026-05-03 21:18 24.73983 -81.74059 25012 ft 487 kts 34°
2026-05-03 21:18 24.76642 -81.71765 25018 ft 486 kts 34°
2026-05-03 21:19 24.79302 -81.69465 25014 ft 485 kts 34°
2026-05-03 21:19 24.81949 -81.67176 25013 ft 484 kts 34°
2026-05-03 21:19 24.84597 -81.64886 25015 ft 484 kts 34°
2026-05-03 21:19 24.87247 -81.62593 25018 ft 484 kts 34°
2026-05-03 21:20 24.89897 -81.60301 25013 ft 484 kts 34°
2026-05-03 21:20 24.92544 -81.58011 25010 ft 484 kts 34°
2026-05-03 21:20 24.95195 -81.55716 25012 ft 485 kts 34°
2026-05-03 21:20 24.97846 -81.53418 24906 ft 484 kts 34°
2026-05-03 21:21 25.00499 -81.51119 24244 ft 487 kts 34°
2026-05-03 21:21 25.03166 -81.48806 23558 ft 486 kts 35°
2026-05-03 21:21 25.05832 -81.46492 22522 ft 489 kts 35°
2026-05-03 21:21 25.08512 -81.44165 21536 ft 491 kts 35°
2026-05-03 21:22 25.11201 -81.41829 20581 ft 492 kts 35°
2026-05-03 21:22 25.13842 -81.39530 19958 ft 485 kts 35°
2026-05-03 21:22 25.16303 -81.37387 19397 ft 478 kts 35°
2026-05-03 21:22 25.18878 -81.35144 18826 ft 463 kts 35°
2026-05-03 21:23 25.21366 -81.32975 18285 ft 446 kts 35°
2026-05-03 21:23 25.23754 -81.30874 17693 ft 431 kts 36°
2026-05-03 21:23 25.26037 -81.28801 17156 ft 417 kts 37°
2026-05-03 21:23 25.28233 -81.26781 16639 ft 405 kts 37°
2026-05-03 21:24 25.30364 -81.24815 16151 ft 393 kts 37°
2026-05-03 21:24 25.32434 -81.22908 15672 ft 382 kts 37°
2026-05-03 21:24 25.34452 -81.21052 15223 ft 373 kts 36°
2026-05-03 21:24 25.35765 -81.19847 14930 ft 367 kts 36°
2026-05-03 21:25 25.37711 -81.18062 14493 ft 359 kts 36°
2026-05-03 21:25 25.39616 -81.16316 14061 ft 353 kts 36°
2026-05-03 21:25 25.42141 -81.14004 13428 ft 359 kts 36°
2026-05-03 21:25 25.44080 -81.12229 12972 ft 364 kts 37°
2026-05-03 21:26 25.45402 -81.11017 12657 ft 366 kts 37°
2026-05-03 21:26 25.47363 -81.09216 12195 ft 365 kts 37°
2026-05-03 21:26 25.49313 -81.07424 11735 ft 364 kts 37°
2026-05-03 21:26 25.51239 -81.05652 11268 ft 355 kts 37°
2026-05-03 21:27 25.53109 -81.03930 10833 ft 346 kts 37°
2026-05-03 21:27 25.54912 -81.02271 10516 ft 334 kts 36°
2026-05-03 21:27 25.56852 -81.00986 10214 ft 320 kts 14°
2026-05-03 21:27 25.59041 -81.00416 10108 ft 330 kts
2026-05-03 21:28 25.61324 -80.99903 10026 ft 335 kts
2026-05-03 21:28 25.63521 -80.99399 9988 ft 334 kts
2026-05-03 21:28 25.65758 -80.98872 9978 ft 322 kts
2026-05-03 21:28 25.67889 -80.98360 9963 ft 304 kts
2026-05-03 21:29 25.69908 -80.97870 9897 ft 293 kts
2026-05-03 21:29 25.71899 -80.97388 9608 ft 291 kts
2026-05-03 21:29 25.73877 -80.96909 9269 ft 291 kts
2026-05-03 21:29 25.75846 -80.96430 8959 ft 290 kts
2026-05-03 21:30 25.77814 -80.95950 8629 ft 289 kts
2026-05-03 21:30 25.79780 -80.95470 8296 ft 289 kts
2026-05-03 21:30 25.81739 -80.94991 7966 ft 288 kts
2026-05-03 21:30 25.83694 -80.94512 7726 ft 289 kts
2026-05-03 21:31 25.85242 -80.94138 7219 ft 302 kts
2026-05-03 21:31 25.87314 -80.93618 6995 ft 298 kts 13°
2026-05-03 21:31 25.89158 -80.92703 6986 ft 284 kts 27°
2026-05-03 21:31 25.90883 -80.91603 6996 ft 287 kts 27°
2026-05-03 21:32 25.92588 -80.90521 6995 ft 284 kts 27°
2026-05-03 21:32 25.94309 -80.89446 6999 ft 283 kts 26°
2026-05-03 21:32 25.95833 -80.88505 6995 ft 282 kts 26°
2026-05-03 21:32 25.97517 -80.87470 6990 ft 279 kts 26°
2026-05-03 21:33 25.98772 -80.86700 6999 ft 279 kts 26°
2026-05-03 21:33 26.00412 -80.85522 6985 ft 286 kts 43°
2026-05-03 21:33 26.01483 -80.83647 6941 ft 291 kts 72°
2026-05-03 21:33 26.01923 -80.81454 6833 ft 291 kts 80°
2026-05-03 21:34 26.02265 -80.79239 6691 ft 290 kts 81°
2026-05-03 21:34 26.02594 -80.77028 6553 ft 288 kts 81°
2026-05-03 21:34 26.02923 -80.74845 6419 ft 284 kts 81°
2026-05-03 21:34 26.03248 -80.72718 6284 ft 282 kts 81°
2026-05-03 21:35 26.03580 -80.70571 6208 ft 282 kts 81°
2026-05-03 21:35 26.03920 -80.68397 6034 ft 290 kts 80°
2026-05-03 21:35 26.04266 -80.66198 5872 ft 286 kts 81°
2026-05-03 21:35 26.04605 -80.64049 5747 ft 278 kts 80°
2026-05-03 21:36 26.04937 -80.61944 5639 ft 275 kts 80°
2026-05-03 21:36 26.05266 -80.59855 5531 ft 275 kts 81°
2026-05-03 21:36 26.05597 -80.57764 5428 ft 274 kts 80°
2026-05-03 21:36 26.05927 -80.55669 5325 ft 276 kts 80°
2026-05-03 21:37 26.06261 -80.53553 5182 ft 280 kts 80°
2026-05-03 21:37 26.06597 -80.51413 5131 ft 283 kts 78°
2026-05-03 21:37 26.06844 -80.49179 4856 ft 300 kts 86°
2026-05-03 21:37 26.06850 -80.46824 4686 ft 308 kts 92°
2026-05-03 21:38 26.06800 -80.44479 4531 ft 297 kts 92°
2026-05-03 21:38 26.06753 -80.42247 4364 ft 282 kts 91°
2026-05-03 21:38 26.06724 -80.40139 4071 ft 266 kts 91°
2026-05-03 21:38 26.06707 -80.38146 3708 ft 250 kts 90°
2026-05-03 21:39 26.06695 -80.36271 3420 ft 235 kts 90°
2026-05-03 21:39 26.06686 -80.34511 3163 ft 221 kts 90°
2026-05-03 21:39 26.06678 -80.32872 2930 ft 210 kts 90°
2026-05-03 21:39 26.06670 -80.31271 2657 ft 204 kts 90°
2026-05-03 21:40 26.06663 -80.29721 2412 ft 195 kts 90°
2026-05-03 21:40 26.06655 -80.28263 2166 ft 184 kts 90°
2026-05-03 21:40 26.06648 -80.26857 2066 ft 182 kts 90°
2026-05-03 21:40 26.06641 -80.25452 1983 ft 183 kts 89°
2026-05-03 21:41 26.06628 -80.24042 1747 ft 172 kts 89°
2026-05-03 21:41 26.06627 -80.22781 1519 ft 157 kts 89°
2026-05-03 21:41 26.06626 -80.21605 1249 ft 148 kts 88°
2026-05-03 21:41 26.06618 -80.20482 951 ft 147 kts 88°
2026-05-03 21:42 26.06621 -80.19715 819 ft 146 kts 88°
2026-05-03 21:42 26.06617 -80.18593 598 ft 143 kts 86°
2026-05-03 21:42 26.06595 -80.17482 444 ft 148 kts 87°
2026-05-03 21:42 26.06589 -80.16329 180 ft 149 kts 86°
2026-05-03 21:43 26.06585 -80.15196 53 ft 144 kts 86°
2026-05-03 21:43 26.06582 -80.14212 53 ft 77 kts 91°
2026-05-03 21:43 26.06579 -80.13903 62 ft 27 kts 88°
2026-05-03 21:43 26.06648 -80.13758 68 ft 16 kts 45°
2026-05-03 21:44 26.06665 -80.13740 69 ft 1 kts 41°
2026-05-03 21:44 26.06696 -80.13723 64 ft 7 kts
2026-05-03 21:44 26.06741 -80.13758 59 ft 10 kts 295°
2026-05-03 21:44 26.06742 -80.13838 64 ft 11 kts 268°
2026-05-03 21:45 26.06741 -80.13925 62 ft 11 kts 268°
2026-05-03 21:45 26.06724 -80.14019 53 ft 14 kts 252°
2026-05-03 21:45 26.06690 -80.14124 54 ft 15 kts 255°
2026-05-03 21:45 26.06686 -80.14244 51 ft 16 kts 272°
2026-05-03 21:46 26.06691 -80.14365 47 ft 16 kts 272°
2026-05-03 21:46 26.06695 -80.14489 44 ft 15 kts 270°
2026-05-03 21:46 26.06707 -80.14586 39 ft 5 kts 303°
2026-05-03 21:46 26.06709 -80.14589 39 ft 1 kts 302°
2026-05-03 21:47 26.06710 -80.14611 40 ft 5 kts 268°
2026-05-03 21:47 26.06700 -80.14672 40 ft 12 kts 257°
2026-05-03 21:47 26.06693 -80.14775 40 ft 14 kts 274°
2026-05-03 21:47 26.06690 -80.14882 39 ft 13 kts 268°
2026-05-03 21:48 26.06691 -80.14983 38 ft 13 kts 272°
2026-05-03 21:48 26.06694 -80.15077 37 ft 11 kts 272°
2026-05-03 21:48 26.06724 -80.15133 35 ft 7 kts 345°
2026-05-03 21:48 26.06776 -80.15132 34 ft 7 kts
2026-05-03 21:49 26.06822 -80.15131 33 ft 0 kts
2026-05-03 21:51 26.06832 -80.15131 33 ft 7 kts
2026-05-03 21:51 26.06901 -80.15130 31 ft 11 kts
2026-05-03 21:51 26.06980 -80.15129 29 ft 12 kts
2026-05-03 21:51 26.07064 -80.15105 27 ft 13 kts 33°
2026-05-03 21:52 26.07135 -80.15030 23 ft 14 kts 46°
2026-05-03 21:52 26.07187 -80.14953 21 ft 10 kts 65°
2026-05-03 21:52 26.07227 -80.14891 21 ft 10 kts 54°
2026-05-03 21:52 26.07268 -80.14836 19 ft 7 kts 47°
2026-05-03 21:53 26.07288 -80.14797 18 ft 0 kts 69°
2026-05-03 21:53 26.07292 -80.14782 20 ft 7 kts 70°
2026-05-03 21:53 26.07309 -80.14733 20 ft 0 kts 70°